Columbia Airport, CA

6:50 PM PST on December 13, 2019 (GMT -0800)
Columbia Airport

Weather History for KO22 - August, 2019

Change the Weather History Date:

Friday, August 16, 2019

  Actual Average (KMOD) Record (KMOD)
Temperature  
Mean Temperature 82 °F -  
Max Temperature 100 °F 91 °F 104 °F (1992)
Min Temperature 64 °F 59 °F 49 °F (1949)
Cooling Degree Days 17    
Growing Degree Days 32 (Base 50)    
Moisture  
Dew Point 45 °F    
Average Humidity 33    
Maximum Humidity 56    
Minimum Humidity 11    
Precipitation  
Precipitation 0.00 in - - ()
Sea Level Pressure  
Sea Level Pressure 29.92 in    
Wind  
Wind Speed 2 mph (SW)    
Max Wind Speed 8 mph    
Max Gust Speed 15 mph    
Visibility 10 miles    
Events      
Averages and records for this station are not official NWS values.
T = Trace of Precipitation, MM = Missing Value Source: NWS Daily Summary

Daily Weather History Graph

Daily Weather History Graph

Search for Another Location

Airport or City:

Astronomy

Aug. 16, 2019 Rise Set
Actual Time 6:17 AM PDT 7:53 PM PDT
Civil Twilight 5:49 AM PDT 8:21 PM PDT
Nautical Twilight 5:15 AM PDT 8:55 PM PDT
Astronomical Twilight 4:39 AM PDT 9:30 PM PDT
Moon 8:56 PM PDT (8/16) 7:13 AM PDT (8/16)
Length of Visible Light 14h 32m
Length of Day
13h 36m
Full, 99% of the Moon is Illuminated
Aug 16
Full
Aug 23
Last Quarter
Aug 30
New
Sep 5
First Quarter
Sep 13
Full

Hourly Weather History & Observations

Time (PDT) Temp. Heat Index Dew Point Humidity Pressure Visibility Wind Dir Wind Speed Gust Speed Precip Events Conditions
12:15 AM 68.0 °F - 48.2 °F 49% 29.96 in 10.0 mi Calm Calm - N/A   Clear
12:35 AM 69.8 °F - 48.2 °F 46% 29.96 in 10.0 mi Calm Calm - N/A   Clear
12:55 AM 68.0 °F - 48.2 °F 49% 29.96 in 10.0 mi Calm Calm - N/A   Clear
1:15 AM 68.0 °F - 48.2 °F 49% 29.96 in 10.0 mi Calm Calm - N/A   Clear
1:35 AM 68.0 °F - 48.2 °F 49% 29.96 in 10.0 mi Variable 3.5 mph - N/A   Clear
1:55 AM 66.2 °F - 48.2 °F 52% 29.95 in 10.0 mi Variable 4.6 mph - N/A   Clear
2:15 AM 66.2 °F - 48.2 °F 52% 29.95 in 10.0 mi Variable 3.5 mph - N/A   Clear
2:35 AM 68.0 °F - 48.2 °F 49% 29.95 in 10.0 mi Calm Calm - N/A   Clear
2:55 AM 66.2 °F - 48.2 °F 52% 29.94 in 10.0 mi Calm Calm - N/A   Clear
3:15 AM 66.2 °F - 48.2 °F 52% 29.94 in 10.0 mi Calm Calm - N/A   Clear
3:35 AM 66.2 °F - 48.2 °F 52% 29.94 in 10.0 mi Calm Calm - N/A   Clear
3:55 AM 66.2 °F - 48.2 °F 52% 29.94 in 10.0 mi Calm Calm - N/A   Clear
4:15 AM 64.4 °F - 48.2 °F 56% 29.94 in 10.0 mi Calm Calm - N/A   Clear
4:35 AM 64.4 °F - 48.2 °F 56% 29.94 in 10.0 mi Calm Calm - N/A   Clear
4:55 AM 64.4 °F - 48.2 °F 56% 29.94 in 10.0 mi Calm Calm - N/A   Clear
5:15 AM 64.4 °F - 48.2 °F 56% 29.94 in 10.0 mi Calm Calm - N/A   Clear
5:35 AM 64.4 °F - 48.2 °F 56% 29.94 in 10.0 mi Calm Calm - N/A   Clear
5:55 AM 64.4 °F - 48.2 °F 56% 29.94 in 10.0 mi Calm Calm - N/A   Clear
6:15 AM 64.4 °F - 48.2 °F 56% 29.94 in 10.0 mi Calm Calm - N/A   Clear
6:35 AM 64.4 °F - 48.2 °F 56% 29.94 in 10.0 mi Calm Calm - N/A   Clear
6:55 AM 64.4 °F - 48.2 °F 56% 29.95 in 10.0 mi Calm Calm - N/A   Clear
7:15 AM 66.2 °F - 50.0 °F 56% 29.95 in 10.0 mi North - - N/A   Clear
7:35 AM 68.0 °F - 51.8 °F 56% 29.96 in 10.0 mi Calm Calm - N/A   Clear
7:55 AM 71.6 °F - 53.6 °F 53% 29.96 in 10.0 mi Calm Calm - N/A   Clear
8:15 AM 77.0 °F - 53.6 °F 44% 29.96 in 10.0 mi Calm Calm - N/A   Clear
8:35 AM 80.6 °F 80.3 °F 53.6 °F 39% 29.96 in 10.0 mi Calm Calm - N/A   Clear
8:55 AM 82.4 °F 81.7 °F 55.4 °F 39% 29.96 in 10.0 mi Calm Calm - N/A   Clear
9:15 AM 86.0 °F 84.2 °F 53.6 °F 33% 29.96 in 10.0 mi Calm Calm - N/A   Clear
9:35 AM 87.8 °F - 50.0 °F 27% 29.96 in 10.0 mi Calm Calm - N/A   Clear
9:55 AM 89.6 °F - 48.2 °F 24% 29.96 in 10.0 mi Variable 3.5 mph - N/A   Clear
10:15 AM 91.4 °F - 48.2 °F 23% 29.96 in 10.0 mi Variable 3.5 mph - N/A   Clear
10:35 AM 91.4 °F - 46.4 °F 21% 29.96 in 10.0 mi Variable 4.6 mph - N/A   Clear
10:55 AM 93.2 °F - 48.2 °F 21% 29.96 in 10.0 mi Calm Calm - N/A   Clear
11:15 AM 96.8 °F - 48.2 °F 19% 29.95 in 10.0 mi Variable 5.8 mph - N/A   Clear
11:35 AM 95.0 °F - 46.4 °F 19% 29.95 in 10.0 mi Variable 5.8 mph - N/A   Clear
11:55 AM 96.8 °F - 42.8 °F 16% 29.95 in 10.0 mi Calm Calm - N/A   Clear
12:15 PM 96.8 °F - 46.4 °F 18% 29.94 in 10.0 mi Calm Calm - N/A   Clear
12:35 PM 98.6 °F - 41.0 °F 14% 29.94 in 10.0 mi Variable 5.8 mph 12.7 mph N/A   Clear
12:55 PM 98.6 °F - 39.2 °F 13% 29.94 in 10.0 mi Variable 5.8 mph 12.7 mph N/A   Clear
1:15 PM 100.4 °F - 37.4 °F 11% 29.93 in 10.0 mi Variable 8.1 mph - N/A   Clear
1:35 PM 98.6 °F - 39.2 °F 13% 29.93 in 10.0 mi Variable 5.8 mph - N/A   Clear
2:15 PM 100.4 °F - 39.2 °F 12% 29.92 in 10.0 mi Variable 6.9 mph - N/A   Clear
2:35 PM 100.4 °F - 41.0 °F 13% 29.91 in 10.0 mi Variable 6.9 mph 15.0 mph N/A   Clear
2:55 PM 100.4 °F - 39.2 °F 12% 29.91 in 10.0 mi Variable 5.8 mph 15.0 mph N/A   Clear
3:15 PM 100.4 °F - 39.2 °F 12% 29.90 in 10.0 mi Variable 4.6 mph 13.8 mph N/A   Clear
3:35 PM 100.4 °F - 39.2 °F 12% 29.90 in 10.0 mi Variable 6.9 mph - N/A   Clear
3:55 PM 100.4 °F - 37.4 °F 11% 29.89 in 10.0 mi Variable 4.6 mph 15.0 mph N/A   Clear
4:15 PM 100.4 °F - 35.6 °F 11% 29.89 in 10.0 mi Variable 5.8 mph 11.5 mph N/A   Clear
4:35 PM 100.4 °F - 35.6 °F 11% 29.88 in 10.0 mi Variable 6.9 mph - N/A   Clear
4:55 PM 98.6 °F - 35.6 °F 11% 29.88 in 10.0 mi Variable 4.6 mph - N/A   Clear
5:15 PM 98.6 °F - 35.6 °F 11% 29.88 in 10.0 mi Calm Calm - N/A   Clear
5:35 PM 98.6 °F - 35.6 °F 11% 29.87 in 10.0 mi Variable 5.8 mph - N/A   Clear
5:55 PM 96.8 °F - 35.6 °F 12% 29.87 in 10.0 mi Variable 6.9 mph - N/A   Clear
6:15 PM 96.8 °F - 33.8 °F 11% 29.87 in 10.0 mi WSW 8.1 mph - N/A   Clear
6:35 PM 96.8 °F - 33.8 °F 11% 29.87 in 10.0 mi Variable 4.6 mph 11.5 mph N/A   Clear
6:55 PM 95.0 °F - 35.6 °F 12% 29.86 in 10.0 mi SW 4.6 mph - N/A   Clear
7:15 PM 93.2 °F - 37.4 °F 14% 29.86 in 10.0 mi SSW 4.6 mph - N/A   Clear
7:35 PM 91.4 °F - 41.0 °F 17% 29.87 in 10.0 mi Calm Calm - N/A   Clear
7:55 PM 86.0 °F - 42.8 °F 22% 29.87 in 10.0 mi North - - N/A   Clear
8:15 PM 82.4 °F - 46.4 °F 28% 29.87 in 10.0 mi Calm Calm - N/A   Clear
8:35 PM 78.8 °F - 46.4 °F 32% 29.87 in 10.0 mi Calm Calm - N/A   Partly Cloudy
8:55 PM 78.8 °F - 46.4 °F 32% 29.88 in 10.0 mi Calm Calm - N/A   Clear
9:15 PM 77.0 °F - 46.4 °F 34% 29.88 in 10.0 mi Calm Calm - N/A   Partly Cloudy
9:35 PM 75.2 °F - 46.4 °F 36% 29.88 in 10.0 mi Calm Calm - N/A   Partly Cloudy
9:55 PM 75.2 °F - 48.2 °F 38% 29.88 in 10.0 mi Calm Calm - N/A   Scattered Clouds
10:15 PM 71.6 °F - 48.2 °F 43% 29.88 in 10.0 mi Calm Calm - N/A   Mostly Cloudy
10:35 PM 71.6 °F - 48.2 °F 43% 29.87 in 10.0 mi Calm Calm - N/A   Mostly Cloudy
10:55 PM 71.6 °F - 48.2 °F 43% 29.88 in 10.0 mi Calm Calm - N/A   Overcast
11:15 PM 71.6 °F - 48.2 °F 43% 29.88 in 10.0 mi Calm Calm - N/A   Overcast
11:35 PM 69.8 °F - 48.2 °F 46% 29.88 in 10.0 mi Calm Calm - N/A   Overcast
11:55 PM 69.8 °F - 48.2 °F 46% 29.88 in 10.0 mi Variable 3.5 mph - N/A   Overcast